DW5721 Weather Reports


time (UTC)temp
F
wind
direction
speed
knots
gust
knots
rain 1hr
in
rain 24hr
in
rain mn
in
humidity
%
barometer
mb
20260507150103 60 69 1.7 6.1 0.00 0.03 0.00 44 1011.8
20260507145035 60 57 2.6 7.0 0.00 0.03 0.00 44 1011.8
20260507144008 61 59 0.9 8.7 0.00 0.03 0.00 43 1011.8
20260507142945 62 90 2.6 8.7 0.00 0.03 0.00 43 1011.8
20260507142002 60 43 0.9 7.8 0.00 0.03 0.00 43 1011.8
20260507140926 60 36 1.7 7.0 0.00 0.03 0.00 40 1012.0
20260507135900 60 39 1.7 6.1 0.00 0.03 0.00 42 1012.0
20260507134827 61 66 2.6 6.1 0.00 0.03 0.00 43 1012.1
20260507133753 61 59 0.9 6.1 0.00 0.03 0.00 47 1012.2
20260507130439 58 59 2.6 6.1 0.00 0.14 0.00 50 1012.6
20260507124249 57 43 1.7 5.2 0.00 0.22 0.00 53 1012.6
20260507122110 57 98 2.6 8.7 0.00 0.26 0.00 52 1012.7
20260507121121 58 59 1.7 8.7 0.00 0.26 0.00 51 1012.7
20260507120049 57 85 2.6 6.1 0.00 0.26 0.00 54 1012.8
20260507115044 57 59 2.6 7.8 0.00 0.26 0.00 54 1012.8
20260507114055 57 77 2.6 8.7 0.00 0.27 0.00 55 1012.9
20260507113037 57 55 2.6 7.8 0.00 0.27 0.00 54 1013.0
20260507112044 55 47 2.6 7.0 0.00 0.27 0.00 56 1013.1
20260507105927 54 24 4.3 8.7 0.00 0.27 0.00 59 1013.3
20260507104905 55 30 3.5 8.7 0.00 0.27 0.00 58 1013.4
20260507103837 53 42 3.5 8.7 0.00 0.27 0.00 59 1013.4
20260507101641 54 23 3.5 8.7 0.00 0.27 0.00 58 1013.5
20260507100629 53 81 2.6 8.7 0.00 0.27 0.00 59 1013.6
20260507095611 52 55 1.7 6.1 0.00 0.27 0.00 59 1013.7
20260507094545 52 31 2.6 9.6 0.00 0.27 0.00 60 1013.6
20260507093527 52 64 3.5 9.6 0.00 0.27 0.00 60 1013.5
20260507092532 52 355 3.5 7.8 0.00 0.27 0.00 61 1013.5
20260507090337 52 48 2.6 8.7 0.00 0.27 0.00 65 1013.5
20260507084221 51 10 2.6 7.0 0.00 0.27 0.00 67 1013.5
20260507083149 51 49 1.7 7.0 0.00 0.27 0.00 68 1013.5
20260507082125 50 24 0.9 7.0 0.00 0.27 0.00 68 1013.5
20260507081149 50 72 0.9 4.3 0.00 0.27 0.00 75 1013.6
20260507074941 48 69 0.0 4.3 0.00 0.27 0.00 79 1013.6
20260507073955 48 98 0.0 2.6 0.00 0.27 0.00 80 1013.7
20260507072950 46 78 0.0 0.0 0.00 0.28 0.00 78 1013.7
20260507071912 46 94 0.0 0.0 0.00 0.28 0.00 82 1013.7
20260507070913 46 95 0.0 0.0 0.00 0.28 0.00 82 1013.8
20260507065928 45 115 0.0 0.0 0.00 0.29 0.00 85 1013.8
20260507064925 45 126 0.0 0.0 0.00 0.29 0.00 85 1013.8
20260507063918 44 126 0.0 0.0 0.00 0.30 0.00 86 1013.8
20260507062846 43 126 0.0 0.0 0.00 0.32 0.00 87 1013.7
20260507061825 43 126 0.0 0.0 0.00 0.33 0.00 88 1013.6
20260507055710 43 46 0.0 0.0 0.00 0.35 0.00 89 1013.5
20260507054631 42 46 0.0 0.0 0.00 0.35 0.00 89 1013.4
20260507052520 41 46 0.0 0.0 0.00 0.35 0.00 90 1013.3
20260507051511 41 46 0.0 0.0 0.00 0.35 0.00 91 1013.0
20260507050530 40 46 0.0 0.0 0.00 0.35 0.00 92 1012.9
20260507044340 40 46 0.0 0.0 0.00 0.35 0.00 92 1012.8
20260507043307 40 46 0.0 0.0 0.00 0.35 0.00 92 1012.6
20260507042314 40 46 0.0 0.0 0.00 0.35 0.00 92 1012.5
20260507041316 40 46 0.0 0.0 0.00 0.35 0.00 92 1012.4
20260507040311 40 46 0.0 0.0 0.00 0.35 0.00 92 1012.3